IGO7975 VOMM-VOBL

Flight info

Callsign IGO7975
Flight time N/A
Altitude 26000
Route KKP DCT BUTLA DCT XIVIL XIVIL7E
Aircraft A20N/M-SDE2E3FGHIRWXY/LB1

Departure

Time 2026-04-26 09:52
Airport Chennai International Airport (VOMM)

Arrival

Time N/A
Airport Kempegowda International Airport Bengaluru (VOBL)
Time Latitude Longitude Altitude Speed Heading
2026-04-26 09:33 12.99181 80.17856 56 ft 0 kts 159°
2026-04-26 09:41 12.99186 80.17854 56 ft 1 kts 158°
2026-04-26 09:41 12.99194 80.17851 49 ft 1 kts 159°
2026-04-26 09:42 12.99202 80.17848 50 ft 1 kts 161°
2026-04-26 09:42 12.99205 80.17847 51 ft 1 kts 162°
2026-04-26 09:42 12.99213 80.17844 49 ft 1 kts 163°
2026-04-26 09:42 12.99221 80.17842 52 ft 1 kts 165°
2026-04-26 09:43 12.99229 80.17840 50 ft 1 kts 159°
2026-04-26 09:43 12.99237 80.17836 53 ft 1 kts 137°
2026-04-26 09:43 12.99242 80.17830 48 ft 1 kts 112°
2026-04-26 09:43 12.99245 80.17823 52 ft 0 kts 80°
2026-04-26 09:44 12.99245 80.17824 49 ft 0 kts 81°
2026-04-26 09:47 12.99245 80.17825 49 ft 1 kts 81°
2026-04-26 09:47 12.99253 80.17850 54 ft 6 kts 69°
2026-04-26 09:48 12.99273 80.17901 53 ft 6 kts 69°
2026-04-26 09:48 12.99292 80.17949 52 ft 9 kts 67°
2026-04-26 09:48 12.99320 80.18022 52 ft 11 kts 68°
2026-04-26 09:48 12.99348 80.18094 54 ft 12 kts 69°
2026-04-26 09:49 12.99362 80.18190 58 ft 15 kts 91°
2026-04-26 09:49 12.99405 80.18297 56 ft 19 kts 47°
2026-04-26 09:49 12.99462 80.18350 54 ft 0 kts 42°
2026-04-26 09:50 12.99474 80.18361 54 ft 5 kts 42°
2026-04-26 09:50 12.99514 80.18397 54 ft 10 kts 37°
2026-04-26 09:50 12.99569 80.18386 52 ft 9 kts 289°
2026-04-26 09:50 12.99552 80.18326 53 ft 0 kts 250°
2026-04-26 09:51 12.99548 80.18314 53 ft 4 kts 250°
2026-04-26 09:51 12.99531 80.18269 52 ft 14 kts 248°
2026-04-26 09:51 12.99386 80.17889 54 ft 97 kts 250°
2026-04-26 09:51 12.99064 80.17024 53 ft 160 kts 249°
2026-04-26 09:52 12.98690 80.15831 465 ft 181 kts 250°
2026-04-26 09:52 12.97816 80.13386 1860 ft 191 kts 241°
2026-04-26 09:52 12.97144 80.12139 2347 ft 210 kts 236°
2026-04-26 09:53 12.96425 80.10736 2796 ft 235 kts 242°
2026-04-26 09:53 12.95707 80.09149 3346 ft 257 kts 243°
2026-04-26 09:53 12.94950 80.07428 4069 ft 270 kts 243°
2026-04-26 09:53 12.94159 80.05648 4979 ft 278 kts 244°
2026-04-26 09:54 12.93336 80.03825 5857 ft 286 kts 244°
2026-04-26 09:54 12.92480 80.01947 6677 ft 296 kts 244°
2026-04-26 09:54 12.91602 80.00031 7592 ft 299 kts 245°
2026-04-26 09:54 12.90707 79.98080 8435 ft 306 kts 245°
2026-04-26 09:55 12.89792 79.96086 9242 ft 315 kts 245°
2026-04-26 09:55 12.88824 79.93977 9630 ft 340 kts 245°
2026-04-26 09:55 12.87774 79.91689 9759 ft 369 kts 245°
2026-04-26 09:55 12.86635 79.89215 9787 ft 398 kts 245°
2026-04-26 09:56 12.85414 79.86562 9790 ft 424 kts 245°
2026-04-26 09:56 12.84125 79.83759 9787 ft 445 kts 245°
2026-04-26 09:56 12.82786 79.80848 10044 ft 451 kts 245°
2026-04-26 09:56 12.81460 79.77984 11082 ft 442 kts 245°
2026-04-26 09:57 12.80137 79.75144 11808 ft 435 kts 244°
2026-04-26 09:57 12.79021 79.72377 12093 ft 419 kts 254°
2026-04-26 09:57 12.78514 79.69338 11768 ft 448 kts 268°
2026-04-26 09:57 12.78670 79.66076 11657 ft 464 kts 278°
2026-04-26 09:58 12.79036 79.62842 12806 ft 451 kts 277°
2026-04-26 09:58 12.79387 79.59669 13393 ft 446 kts 278°
2026-04-26 09:58 12.80077 79.56583 13206 ft 436 kts 290°
2026-04-26 09:58 12.81349 79.53890 12830 ft 406 kts 305°
2026-04-26 09:59 12.82971 79.51626 12458 ft 382 kts 311°
2026-04-26 09:59 12.84661 79.49615 12088 ft 363 kts 314°
2026-04-26 09:59 12.86321 79.47749 11729 ft 346 kts 316°
2026-04-26 09:59 12.87923 79.45980 11368 ft 332 kts 314°
2026-04-26 10:00 12.89377 79.44196 11013 ft 320 kts 312°
2026-04-26 10:00 12.90735 79.42439 10666 ft 309 kts 311°
2026-04-26 10:00 12.92035 79.40729 10312 ft 299 kts 311°
2026-04-26 10:00 12.93295 79.39071 9969 ft 290 kts 311°
2026-04-26 10:01 12.94507 79.37479 9795 ft 274 kts 312°
2026-04-26 10:01 12.95631 79.35999 9782 ft 252 kts 312°
2026-04-26 10:01 12.96666 79.34641 9784 ft 231 kts 313°
2026-04-26 10:01 12.97622 79.33391 9672 ft 219 kts 313°
2026-04-26 10:02 12.98638 79.32102 9894 ft 238 kts 314°
2026-04-26 10:02 12.99659 79.30830 10910 ft 223 kts 314°
2026-04-26 10:02 13.00622 79.29648 11849 ft 216 kts 315°
2026-04-26 10:02 13.01610 79.28461 12513 ft 223 kts 315°
2026-04-26 10:03 13.02651 79.27243 13132 ft 230 kts 316°
2026-04-26 10:03 13.03726 79.26017 13805 ft 232 kts 316°
2026-04-26 10:03 13.04823 79.24796 14465 ft 234 kts 316°
2026-04-26 10:03 13.05943 79.23578 15103 ft 236 kts 316°
2026-04-26 10:04 13.07093 79.22354 15726 ft 240 kts 317°
2026-04-26 10:04 13.08270 79.21129 16325 ft 243 kts 317°
2026-04-26 10:04 13.09479 79.19898 16933 ft 246 kts 317°
2026-04-26 10:04 13.10713 79.18667 17537 ft 249 kts 317°
2026-04-26 10:05 13.11978 79.17432 18122 ft 252 kts 317°
2026-04-26 10:05 13.13268 79.16196 18646 ft 255 kts 317°
2026-04-26 10:05 13.14578 79.14962 19162 ft 257 kts 318°
2026-04-26 10:05 13.15911 79.13728 19668 ft 258 kts 319°
2026-04-26 10:06 13.17136 79.12612 20856 ft 210 kts 319°
2026-04-26 10:06 13.18168 79.11679 21629 ft 195 kts 319°
2026-04-26 10:06 13.19165 79.10586 21218 ft 235 kts 295°
2026-04-26 10:06 13.20233 79.09056 20772 ft 271 kts 308°
2026-04-26 10:07 13.21304 79.07707 22258 ft 216 kts 310°
2026-04-26 10:07 13.22275 79.06594 22893 ft 216 kts 315°
2026-04-26 10:07 13.23424 79.05485 22866 ft 235 kts 320°